Regional Weather Roundup
Issued by NWS

Home | Current Version | Previous Version | Graphics & Text | Print | Product List | Glossary Off
Versions: 1 2 3 4 5 6 7 8 9 10 11 12 13 14 15 16 17 18 19 20 21 22 23 24 25 26 27 28 29 30 31 32 33 34 35 36 37 38 39 40 41 42 43 44 45 46 47 48 49 50

000
ASUS43 KTOP 251859
RWRKS

WEATHER ROUNDUP FOR KANSAS
NATIONAL WEATHER SERVICE GOODLAND KS
100 PM CST SAT FEB 25 2017

NOTE:  "FAIR" INDICATES FEW OR NO CLOUDS BELOW 12,000 FEET WITH NO
SIGNIFICANT WEATHER AND/OR OBSTRUCTIONS TO VISIBILITY.

KSZ001>006-013>018-027>032-041>047-252000-
NORTHWEST KANSAS

CITY           SKY/WX    TMP DP  RH WIND       PRES   REMARKS
GOODLAND       SUNNY     38  10  31 NW8       29.94F
HAYS           MOSUNNY   40  21  46 SW12      30.06F WCI  33
HILL CITY      CLOUDY    42  21  43 SW16      30.02F
RUSSELL        MOSUNNY   42  13  30 S16       30.05F
$$

KSZ061>065-074>080-084>089-252000-
SOUTHWEST KANSAS

CITY           SKY/WX    TMP DP  RH WIND       PRES   REMARKS
DODGE CITY     SUNNY     42  14  32 S17G23    30.05F
ELKHART          N/A     42  14  32 SW10        N/A
GARDEN CITY    SUNNY     42  14  32 SW15G23   30.01F
LIBERAL        SUNNY     43  18  36 SW20G26   30.05F
$$

KSZ066>073-081>083-090>101-252000-
SOUTHEAST KANSAS

CITY           SKY/WX    TMP DP  RH WIND       PRES   REMARKS
CHANUTE        SUNNY     41  10  28 CALM      30.19F
COFFEYVILLE    SUNNY     43  13  29 NE5       30.20F
HUTCHINSON     SUNNY     40  11  30 SW15      30.13F WCI  32
MEDICINE LODGE   N/A     38  10  31 S7        30.14F
NEWTON         SUNNY     40  11  30 W8        30.14F
PARSONS        SUNNY     42  11  28 VRB3      30.20F
WICHITA INTL   PTSUNNY   38  13  35 SW5       30.16F
WICHITA JABRA  SUNNY     39  11  31 SW10      30.15F WCI  32
WINFIELD       MOSUNNY   40  16  37 SW8       30.19F
$$

KSZ007>012-019>026-033>040-048>060-102>105-252000-
NORTHEAST KANSAS

CITY           SKY/WX    TMP DP  RH WIND       PRES   REMARKS
CONCORDIA      SUNNY     37  19  48 SW10      30.09F WCI  30
EMPORIA        SUNNY     39   9  29 VRB7      30.15F
LAWRENCE       SUNNY     38  15  39 SW6       30.16F
MANHATTAN      SUNNY     39  13  34 VRB7      30.15F
OLATHE IND     SUNNY     36  15  42 VRB6      30.16F
OLATHE EXE     SUNNY     37  11  34 N7        30.15F
SALINA         SUNNY     44  12  27 SW13G18   30.12F
TOPEKA BILLARD SUNNY     38  13  35 MISG      30.16F
TOPEKA FORBES  SUNNY     40  11  30 W10       30.15F WCI  33
$$



USA.gov is the U.S. government's official web portal to all federal, state and local government web resources and services.